• En España
  • Lista de países
  • Para 7 días
  • Temperatura del agua
  • Mapa Satelital
  • El tiempo en el mapa
  • Informadores
  • user-avatar
    Iniciar sesión

    Tiempo cada hora Kipungo

    Hoy, 22 Febrero, Jueves

    Tiempo Temperatura Precipitaciones Viento Presión Humedad
    00:00 +21°C° 0,7 mm 1 mps 651 mmHg 92%
    01:00 +19°C° 0 mm 2 mps 651 mmHg 93%
    02:00 +20°C° 0,3 mm 1 mps 651 mmHg 94%
    03:00 +20°C° 0,3 mm 1 mps 650 mmHg 95%
    04:00 +20°C° 0,3 mm 1 mps 650 mmHg 96%
    05:00 +20°C° 0,1 mm 1 mps 650 mmHg 95%
    06:00 +20°C° 0,1 mm 1 mps 651 mmHg 95%
    07:00 +20°C° 0,1 mm 1 mps 651 mmHg 94%
    08:00 +21°C° 0,7 mm 2 mps 652 mmHg 88%
    09:00 +24°C° 0,7 mm 2 mps 652 mmHg 82%
    10:00 +26°C° 0,7 mm 2 mps 653 mmHg 77%
    11:00 +26°C° 1,2 mm 2 mps 652 mmHg 74%
    12:00 +27°C° 1,2 mm 2 mps 652 mmHg 72%
    13:00 +27°C° 1,2 mm 2 mps 651 mmHg 70%
    14:00 +26°C° 1,8 mm 2 mps 651 mmHg 75%
    15:00 +25°C° 1,8 mm 3 mps 650 mmHg 79%
    16:00 +24°C° 1,8 mm 3 mps 650 mmHg 84%
    17:00 +22°C° 0,9 mm 3 mps 650 mmHg 87%
    18:00 +21°C° 0,9 mm 2 mps 650 mmHg 89%
    19:00 +20°C° 0,9 mm 2 mps 650 mmHg 92%
    20:00 +20°C° 0,4 mm 2 mps 651 mmHg 93%
    21:00 +20°C° 0,4 mm 2 mps 651 mmHg 94%
    22:00 +19°C° 0,4 mm 2 mps 651 mmHg 95%
    23:00 +19°C° 0,6 mm 2 mps 651 mmHg 95%

    Mañana, 23 Febrero, Viernes

    Tiempo Temperatura Precipitaciones Viento Presión Humedad
    00:00 +19°C° 0,6 mm 2 mps 651 mmHg 95%
    01:00 +19°C° 0,6 mm 2 mps 651 mmHg 95%
    02:00 +19°C° 0,6 mm 2 mps 651 mmHg 95%
    03:00 +20°C° 0,6 mm 1 mps 650 mmHg 96%
    04:00 +20°C° 0,6 mm 1 mps 650 mmHg 96%
    05:00 +20°C° 0,3 mm 1 mps 650 mmHg 96%
    06:00 +20°C° 0,3 mm 1 mps 651 mmHg 95%
    07:00 +20°C° 0,3 mm 1 mps 651 mmHg 95%
    08:00 +21°C° 0,5 mm 1 mps 652 mmHg 90%
    09:00 +23°C° 0,5 mm 1 mps 652 mmHg 85%
    10:00 +22°C° 0,5 mm 0 mps 653 mmHg 80%
    11:00 +22°C° 1,5 mm 0 mps 652 mmHg 82%
    12:00 +21°C° 1,5 mm 0 mps 651 mmHg 84%
    13:00 +23°C° 1,5 mm 1 mps 651 mmHg 86%
    14:00 +23°C° 0,8 mm 1 mps 650 mmHg 86%
    15:00 +23°C° 0,8 mm 1 mps 650 mmHg 86%
    16:00 +23°C° 0,8 mm 1 mps 650 mmHg 86%
    17:00 +22°C° 0,1 mm 1 mps 650 mmHg 88%
    18:00 +22°C° 0,1 mm 1 mps 650 mmHg 90%
    19:00 +20°C° 0,1 mm 2 mps 650 mmHg 93%
    20:00 +19°C° 0 mm 2 mps 651 mmHg 93%
    21:00 +19°C° 0 mm 2 mps 651 mmHg 94%
    22:00 +19°C° 0 mm 2 mps 651 mmHg 94%
    23:00 +18°C° 0 mm 2 mps 651 mmHg 95%

    Pasado mañana, 24 Febrero, Sábado

    Tiempo Temperatura Precipitaciones Viento Presión Humedad
    00:00 +18°C° 0 mm 2 mps 651 mmHg 96%
    01:00 +18°C° 0 mm 2 mps 651 mmHg 97%
    02:00 +19°C° 0 mm 1 mps 651 mmHg 97%
    03:00 +19°C° 0 mm 1 mps 651 mmHg 97%
    04:00 +19°C° 0 mm 1 mps 651 mmHg 97%
    05:00 +19°C° 0,1 mm 1 mps 651 mmHg 96%
    06:00 +19°C° 0,1 mm 1 mps 651 mmHg 95%
    07:00 +20°C° 0,1 mm 1 mps 652 mmHg 94%
    08:00 +21°C° 0,1 mm 2 mps 652 mmHg 87%
    09:00 +24°C° 0,1 mm 2 mps 653 mmHg 79%
    10:00 +26°C° 0,1 mm 2 mps 654 mmHg 71%
    11:00 +26°C° 0,5 mm 2 mps 653 mmHg 68%
    12:00 +27°C° 0,5 mm 2 mps 653 mmHg 64%
    13:00 +28°C° 0,5 mm 2 mps 653 mmHg 61%
    14:00 +27°C° 1,5 mm 2 mps 652 mmHg 67%
    15:00 +26°C° 1,5 mm 2 mps 651 mmHg 72%
    16:00 +25°C° 1,5 mm 2 mps 651 mmHg 78%
    17:00 +24°C° 0,9 mm 2 mps 651 mmHg 83%
    18:00 +23°C° 0,9 mm 2 mps 651 mmHg 87%
    19:00 +20°C° 0,9 mm 2 mps 651 mmHg 92%
    20:00 +20°C° 0 mm 2 mps 652 mmHg 92%
    21:00 +19°C° 0 mm 2 mps 652 mmHg 93%
    22:00 +19°C° 0 mm 2 mps 652 mmHg 94%
    23:00 +19°C° 0,1 mm 2 mps 652 mmHg 94%

    25 Febrero, Domingo

    Tiempo Temperatura Precipitaciones Viento Presión Humedad
    00:00 +20°C° 0,1 mm 1 mps 652 mmHg 95%
    01:00 +20°C° 0,1 mm 1 mps 652 mmHg 95%
    02:00 +19°C° 0,1 mm 1 mps 652 mmHg 95%
    03:00 +19°C° 0,1 mm 1 mps 652 mmHg 96%
    04:00 +19°C° 0,1 mm 1 mps 651 mmHg 96%
    05:00 +19°C° 0 mm 1 mps 652 mmHg 95%
    06:00 +19°C° 0 mm 1 mps 653 mmHg 95%
    07:00 +19°C° 0 mm 1 mps 653 mmHg 94%
    08:00 +20°C° 0,2 mm 2 mps 654 mmHg 86%
    09:00 +24°C° 0,2 mm 2 mps 654 mmHg 77%
    10:00 +26°C° 0,2 mm 2 mps 655 mmHg 69%
    11:00 +27°C° 0,4 mm 2 mps 654 mmHg 63%
    12:00 +28°C° 0,4 mm 2 mps 654 mmHg 57%
    13:00 +29°C° 0,4 mm 2 mps 654 mmHg 52%
    14:00 +28°C° 0,9 mm 2 mps 653 mmHg 59%
    15:00 +27°C° 0,9 mm 2 mps 652 mmHg 66%
    16:00 +25°C° 0,9 mm 3 mps 651 mmHg 74%
    17:00 +24°C° 0,4 mm 3 mps 651 mmHg 78%
    18:00 +21°C° 0,4 mm 3 mps 652 mmHg 82%
    19:00 +20°C° 0,4 mm 3 mps 652 mmHg 85%
    20:00 +19°C° 0 mm 3 mps 652 mmHg 87%
    21:00 +19°C° 0 mm 2 mps 653 mmHg 90%
    22:00 +19°C° 0 mm 2 mps 653 mmHg 92%
    23:00 +18°C° 0 mm 2 mps 653 mmHg 92%

    26 Febrero, Lunes

    Tiempo Temperatura Precipitaciones Viento Presión Humedad
    00:00 +18°C° 0 mm 2 mps 652 mmHg 93%
    01:00 +18°C° 0 mm 2 mps 652 mmHg 93%
    02:00 +18°C° 0 mm 2 mps 652 mmHg 94%
    03:00 +19°C° 0 mm 1 mps 652 mmHg 94%
    04:00 +18°C° 0 mm 1 mps 651 mmHg 94%
    05:00 +19°C° 0 mm 1 mps 652 mmHg 93%
    06:00 +19°C° 0 mm 1 mps 652 mmHg 92%
    07:00 +19°C° 0 mm 1 mps 653 mmHg 91%
    08:00 +22°C° 0 mm 1 mps 654 mmHg 80%
    09:00 +25°C° 0 mm 1 mps 654 mmHg 68%
    10:00 +27°C° 0 mm 1 mps 655 mmHg 57%
    11:00 +28°C° 0 mm 1 mps 655 mmHg 53%
    12:00 +30°C° 0 mm 1 mps 654 mmHg 49%
    13:00 +31°C° 0 mm 1 mps 654 mmHg 45%
    14:00 +30°C° 0,1 mm 2 mps 653 mmHg 48%
    15:00 +29°C° 0,1 mm 2 mps 653 mmHg 51%
    16:00 +28°C° 0,1 mm 2 mps 652 mmHg 54%
    17:00 +26°C° 0,3 mm 2 mps 652 mmHg 62%
    18:00 +24°C° 0,3 mm 2 mps 652 mmHg 70%
    19:00 +21°C° 0,3 mm 3 mps 652 mmHg 78%
    20:00 +20°C° 0 mm 2 mps 652 mmHg 81%
    21:00 +20°C° 0 mm 2 mps 653 mmHg 84%
    22:00 +19°C° 0 mm 2 mps 653 mmHg 87%
    23:00 +19°C° 0 mm 2 mps 653 mmHg 88%

    27 Febrero, Martes

    Tiempo Temperatura Precipitaciones Viento Presión Humedad
    00:00 +18°C° 0 mm 2 mps 653 mmHg 90%
    01:00 +18°C° 0 mm 2 mps 652 mmHg 92%
    02:00 +18°C° 0 mm 1 mps 652 mmHg 93%
    03:00 +18°C° 0 mm 1 mps 652 mmHg 94%
    04:00 +18°C° 0 mm 1 mps 652 mmHg 95%
    05:00 +18°C° 0 mm 1 mps 652 mmHg 93%
    06:00 +19°C° 0 mm 1 mps 653 mmHg 91%
    07:00 +17°C° 0 mm 0 mps 653 mmHg 89%
    08:00 +20°C° 0 mm 0 mps 654 mmHg 77%
    09:00 +24°C° 0 mm 0 mps 655 mmHg 66%
    10:00 +27°C° 0 mm 0 mps 655 mmHg 54%
    11:00 +30°C° 0 mm 1 mps 655 mmHg 50%
    12:00 +31°C° 0 mm 1 mps 654 mmHg 46%
    13:00 +31°C° 0 mm 1 mps 654 mmHg 42%
    14:00 +31°C° 0 mm 1 mps 653 mmHg 45%
    15:00 +30°C° 0 mm 1 mps 653 mmHg 48%
    16:00 +29°C° 0 mm 1 mps 652 mmHg 52%
    17:00 +27°C° 0 mm 1 mps 652 mmHg 56%
    18:00 +26°C° 0 mm 1 mps 652 mmHg 60%
    19:00 +24°C° 0 mm 2 mps 652 mmHg 64%
    20:00 +23°C° 0 mm 2 mps 652 mmHg 67%
    21:00 +21°C° 0 mm 2 mps 653 mmHg 70%
    22:00 +21°C° 0 mm 2 mps 653 mmHg 73%
    23:00 +20°C° 0 mm 2 mps 653 mmHg 76%
    Mostrar más